Location: Evergreen Manor
(41.4083°N, 81.4939°W)
Time: 05:49:24
(UTC+00:00)

USA 234 - Pass Details

Date: 11 December 2019
Orbit: 1099 x 1108 km, 123.0° (Epoch: 10 January)

Event Time Altitude Azimuth Distance (km) Brightness Sun altitude
Rises 11:08:15 0° 46° (NE) 3,922 6.6 -16.9°
Reaches altitude 10° 11:10:53 10° 39° (NE) 2,964 5.8 -16.4°
Maximum altitude 11:16:49 39° 334° (NNW) 1,609 3.8 -15.4°
Enters shadow 11:20:51 19° 278° (W) 2,336 4.4 -14.7°
